Hourly Weather Barlewiczki

Today, 8 May, Saturday

Time Temperature Precipitation Wind Pressure Humidity
00:00 +2°C° 0 mm 2 mps 754 mmHg 92%
01:00 0°C° 0 mm 3 mps 754 mmHg 95%
02:00 +1°C° 0 mm 3 mps 755 mmHg 94%
03:00 +1°C° 0 mm 3 mps 755 mmHg 93%
04:00 +1°C° 0 mm 3 mps 755 mmHg 92%
05:00 +3°C° 0 mm 3 mps 756 mmHg 87%
06:00 +4°C° 0 mm 3 mps 756 mmHg 82%
07:00 +5°C° 0 mm 3 mps 756 mmHg 77%
08:00 +6°C° 0.2 mm 4 mps 756 mmHg 74%
09:00 +7°C° 0.2 mm 4 mps 757 mmHg 70%
10:00 +8°C° 0.2 mm 5 mps 757 mmHg 67%
11:00 +8°C° 0.3 mm 5 mps 757 mmHg 67%
12:00 +8°C° 0.3 mm 5 mps 757 mmHg 67%
13:00 +8°C° 0.3 mm 6 mps 757 mmHg 68%
14:00 +8°C° 0.2 mm 5 mps 758 mmHg 66%
15:00 +8°C° 0.2 mm 5 mps 758 mmHg 65%
16:00 +9°C° 0.2 mm 5 mps 758 mmHg 64%
17:00 +8°C° 0.1 mm 3 mps 758 mmHg 67%
18:00 +7°C° 0.1 mm 2 mps 758 mmHg 70%
19:00 +7°C° 0.1 mm 1 mps 759 mmHg 74%
20:00 +6°C° 0 mm 1 mps 759 mmHg 74%
21:00 +5°C° 0 mm 1 mps 759 mmHg 75%
22:00 +4°C° 0 mm 1 mps 759 mmHg 76%
23:00 +3°C° 0 mm 2 mps 759 mmHg 77%

Tomorrow, 9 May, Sunday

Time Temperature Precipitation Wind Pressure Humidity
00:00 +3°C° 0 mm 2 mps 759 mmHg 79%
01:00 +2°C° 0 mm 3 mps 759 mmHg 80%
02:00 +2°C° 0 mm 3 mps 759 mmHg 83%
03:00 +2°C° 0 mm 3 mps 759 mmHg 85%
04:00 +2°C° 0 mm 3 mps 759 mmHg 87%
05:00 +3°C° 0 mm 4 mps 759 mmHg 83%
06:00 +5°C° 0 mm 5 mps 758 mmHg 79%
07:00 +7°C° 0 mm 5 mps 758 mmHg 76%
08:00 +7°C° 0 mm 5 mps 758 mmHg 75%
09:00 +8°C° 0 mm 6 mps 758 mmHg 75%
10:00 +8°C° 0 mm 6 mps 758 mmHg 75%
11:00 +9°C° 0 mm 6 mps 758 mmHg 72%
12:00 +11°C° 0 mm 7 mps 757 mmHg 69%
13:00 +12°C° 0 mm 7 mps 757 mmHg 67%
14:00 +15°C° 0 mm 7 mps 757 mmHg 67%
15:00 +16°C° 0 mm 6 mps 757 mmHg 67%
16:00 +17°C° 0 mm 5 mps 756 mmHg 68%
17:00 +16°C° 0 mm 5 mps 756 mmHg 73%
18:00 +14°C° 0 mm 4 mps 756 mmHg 79%
19:00 +13°C° 0 mm 4 mps 756 mmHg 84%
20:00 +13°C° 0 mm 4 mps 756 mmHg 86%
21:00 +12°C° 0 mm 4 mps 756 mmHg 88%
22:00 +11°C° 0 mm 4 mps 757 mmHg 90%
23:00 +11°C° 0 mm 4 mps 757 mmHg 90%

Day after tomorrow, 10 May, Monday

Time Temperature Precipitation Wind Pressure Humidity
00:00 +10°C° 0 mm 4 mps 757 mmHg 90%
01:00 +10°C° 0 mm 4 mps 757 mmHg 90%
02:00 +9°C° 0 mm 5 mps 757 mmHg 88%
03:00 +8°C° 0 mm 5 mps 756 mmHg 85%
04:00 +8°C° 0 mm 5 mps 756 mmHg 83%
05:00 +10°C° 0 mm 5 mps 756 mmHg 81%
06:00 +12°C° 0 mm 5 mps 756 mmHg 79%
07:00 +13°C° 0 mm 5 mps 757 mmHg 76%
08:00 +15°C° 0 mm 6 mps 756 mmHg 72%
09:00 +17°C° 0 mm 6 mps 756 mmHg 67%
10:00 +18°C° 0 mm 7 mps 756 mmHg 63%
11:00 +20°C° 0 mm 7 mps 756 mmHg 62%
12:00 +21°C° 0 mm 7 mps 755 mmHg 61%
13:00 +21°C° 0 mm 7 mps 755 mmHg 61%
14:00 +21°C° 0 mm 7 mps 755 mmHg 62%
15:00 +21°C° 0 mm 7 mps 755 mmHg 64%
16:00 +21°C° 0 mm 7 mps 755 mmHg 66%
17:00 +20°C° 0 mm 6 mps 755 mmHg 70%
18:00 +19°C° 0 mm 6 mps 755 mmHg 74%
19:00 +17°C° 0 mm 5 mps 755 mmHg 78%
20:00 +16°C° 0 mm 5 mps 755 mmHg 80%
21:00 +15°C° 0 mm 5 mps 755 mmHg 82%
22:00 +14°C° 0 mm 4 mps 756 mmHg 84%
23:00 +14°C° 0 mm 4 mps 756 mmHg 85%

11 May, Tuesday

Time Temperature Precipitation Wind Pressure Humidity
00:00 +13°C° 0 mm 4 mps 755 mmHg 87%
01:00 +13°C° 0 mm 4 mps 755 mmHg 89%
02:00 +13°C° 0 mm 5 mps 755 mmHg 90%
03:00 +12°C° 0 mm 5 mps 755 mmHg 91%
04:00 +12°C° 0 mm 5 mps 755 mmHg 93%
05:00 +13°C° 0 mm 5 mps 755 mmHg 89%
06:00 +14°C° 0 mm 5 mps 755 mmHg 85%
07:00 +15°C° 0 mm 6 mps 755 mmHg 82%
08:00 +16°C° 0 mm 6 mps 754 mmHg 77%
09:00 +18°C° 0 mm 7 mps 754 mmHg 73%
10:00 +20°C° 0 mm 7 mps 754 mmHg 68%
11:00 +22°C° 0 mm 7 mps 754 mmHg 67%
12:00 +23°C° 0 mm 7 mps 753 mmHg 65%
13:00 +24°C° 0 mm 7 mps 753 mmHg 64%
14:00 +24°C° 0 mm 7 mps 753 mmHg 66%
15:00 +24°C° 0 mm 7 mps 753 mmHg 67%
16:00 +24°C° 0 mm 7 mps 752 mmHg 69%
17:00 +23°C° 0 mm 7 mps 752 mmHg 71%
18:00 +21°C° 0 mm 7 mps 752 mmHg 73%
19:00 +20°C° 0 mm 7 mps 752 mmHg 75%
20:00 +18°C° 0 mm 7 mps 753 mmHg 75%
21:00 +17°C° 0 mm 7 mps 753 mmHg 74%
22:00 +16°C° 0 mm 7 mps 753 mmHg 74%
23:00 +16°C° 0 mm 7 mps 753 mmHg 74%

12 May, Wednesday

Time Temperature Precipitation Wind Pressure Humidity
00:00 +15°C° 0 mm 7 mps 753 mmHg 73%
01:00 +14°C° 0 mm 6 mps 753 mmHg 72%
02:00 +13°C° 0 mm 6 mps 753 mmHg 71%
03:00 +13°C° 0 mm 6 mps 753 mmHg 70%
04:00 +12°C° 0 mm 5 mps 753 mmHg 69%
05:00 +13°C° 0 mm 6 mps 753 mmHg 70%
06:00 +13°C° 0 mm 6 mps 753 mmHg 71%
07:00 +14°C° 0 mm 7 mps 753 mmHg 72%
08:00 +16°C° 0 mm 7 mps 753 mmHg 69%
09:00 +17°C° 0 mm 7 mps 753 mmHg 66%
10:00 +20°C° 0 mm 8 mps 753 mmHg 63%
11:00 +21°C° 0 mm 8 mps 753 mmHg 62%
12:00 +21°C° 0 mm 7 mps 753 mmHg 62%
13:00 +22°C° 0 mm 7 mps 753 mmHg 61%
14:00 +22°C° 0 mm 7 mps 753 mmHg 62%
15:00 +22°C° 0 mm 7 mps 753 mmHg 63%
16:00 +21°C° 0 mm 7 mps 753 mmHg 64%
17:00 +20°C° 0 mm 6 mps 753 mmHg 68%
18:00 +17°C° 0 mm 5 mps 753 mmHg 73%
19:00 +17°C° 0 mm 4 mps 753 mmHg 78%
20:00 +15°C° 0 mm 4 mps 753 mmHg 81%
21:00 +14°C° 0 mm 4 mps 753 mmHg 84%
22:00 +13°C° 0 mm 4 mps 754 mmHg 86%
23:00 +12°C° 0 mm 4 mps 754 mmHg 85%

13 May, Thursday

Time Temperature Precipitation Wind Pressure Humidity
00:00 +12°C° 0 mm 4 mps 754 mmHg 84%
01:00 +10°C° 0 mm 5 mps 754 mmHg 83%
02:00 +10°C° 0 mm 4 mps 754 mmHg 87%
03:00 +8°C° 0 mm 4 mps 754 mmHg 90%
04:00 +8°C° 0 mm 3 mps 754 mmHg 94%
05:00 +9°C° 0 mm 3 mps 754 mmHg 89%
06:00 +10°C° 0 mm 4 mps 754 mmHg 83%
07:00 +12°C° 0 mm 4 mps 754 mmHg 78%
08:00 +13°C° 0 mm 4 mps 753 mmHg 73%
09:00 +14°C° 0 mm 5 mps 753 mmHg 68%
10:00 +15°C° 0 mm 5 mps 753 mmHg 62%
11:00 +15°C° 0 mm 5 mps 753 mmHg 62%
12:00 +15°C° 0 mm 4 mps 752 mmHg 62%
13:00 +15°C° 0 mm 4 mps 752 mmHg 62%
14:00 +16°C° 0 mm 3 mps 752 mmHg 61%
15:00 +16°C° 0 mm 2 mps 752 mmHg 61%
16:00 +17°C° 0 mm 2 mps 751 mmHg 61%
17:00 +15°C° 0 mm 2 mps 751 mmHg 68%
18:00 +13°C° 0 mm 3 mps 751 mmHg 75%
19:00 +12°C° 0 mm 3 mps 751 mmHg 82%
20:00 +11°C° 0 mm 3 mps 751 mmHg 84%
21:00 +11°C° 0 mm 3 mps 751 mmHg 86%
22:00 +10°C° 0 mm 2 mps 751 mmHg 89%
23:00 +10°C° 0.1 mm 2 mps 750 mmHg 90%
Show more